Location: Asheville, NC
(35.6000°N, 82.5500°W)
Time: 20:13:46

STARS - Pass Details

Date: 17 March 2018
Orbit: 625 x 641 km, 98.3° (Epoch: 17 March)

Event Time Altitude Azimuth Distance (km) Brightness Sun altitude
Rises 19:54:43 0° 10° (N) 2,924 ? -3.9°
Reaches altitude 10° 19:56:55 10° 9° (N) 2,010 ? -4.4°
Maximum altitude 20:01:17 74° 285° (WNW) 654 ? -5.3°
Drops below altitude 10° 20:05:36 10° 200° (SSW) 1,990 ? -6.1°
Sets 20:07:46 0° 198° (SSW) 2,891 ? -6.6°
